Lid_Strength_Index
6 5 5 4 4 4 4 3 2 2 2 2 2 1 1 1 1 1 2 2 2 2 1 1 0 0 1 -0 0 0 0 0 0
6 6 5 5 4 4 4 4 3 2 2 2 2 2 1 1 1 2 3 2 2 2 1 1 1 1 1 1 1 1 1 1 1
6 6 5 5 4 4 4 3 3 2 2 2 2 1 1 1 1 2 3 2 2 1 0 1 1 1 1 1 1 1 1 1 1
6 7 6 5 4 3 3 3 3 2 2 2 2 2 1 1 2 2 3 2 2 1 1 1 1 1 1 1 1 1 1 1 1
6 6 6 6 5 4 3 3 3 3 2 2 2 1 1 1 2 2 2 2 1 1 1 1 1 1 1 1 1 1 1 1 1
6 5 5 5 5 5 4 4 3 3 2 2 2 2 2 2 3 3 2 2 1 1 1 1 2 1 1 1 1 1 1 1 2
6 6 6 5 5 5 5 4 3 3 3 2 2 2 2 2 3 2 2 2 2 2 2 2 2 1 1 1 2 1 1 2 3
6 6 5 5 5 5 4 4 3 3 3 2 2 2 2 2 3 2 2 2 2 2 2 2 2 3 4 4 4 3 2 3 5
6 6 5 5 5 4 4 4 4 3 3 2 2 2 2 3 3 2 2 2 2 2 3 5 5 6 5 4 3 2 2 3 5
6 5 5 5 5 5 4 4 3 3 3 2 2 2 3 3 3 3 2 2 3 3 5 7 8 7 5 4 3 3 2 3 4
6 6 5 5 4 4 4 3 3 2 2 2 2 3 3 3 3 2 3 3 3 3 6 7 8 7 6 5 4 3 2 3 5
6 6 4 4 4 3 3 3 3 3 3 3 3 3 3 3 3 3 3 3 4 5 5 7 6 6 7 6 5 4 4 5 5
5 4 4 4 3 3 3 3 2 3 3 3 3 3 3 3 3 3 3 4 5 5 5 6 5 6 6 6 6 5 5 6 6
4 4 4 3 3 3 3 3 2 3 3 3 3 3 3 2 2 2 3 4 5 6 6 5 5 5 5 5 6 5 6 6 6
5 5 4 3 4 4 3 2 3 3 3 3 3 3 3 2 2 2 3 4 5 5 5 6 6 5 5 5 5 6 6 5 6
5 4 4 3 4 4 3 3 3 3 4 3 3 3 2 2 3 4 4 4 6 6 6 6 6 6 5 5 4 4 5 5 4
5 4 4 4 4 4 5 5 5 5 4 2 2 2 2 3 4 6 5 5 4 5 6 6 5 5 5 4 5 4 4 4 3
4 4 4 4 4 4 5 6 6 4 3 2 3 2 4 4 6 6 5 5 5 4 3 5 5 4 5 6 5 4 5 4 3
4 4 4 4 4 3 4 6 5 4 3 2 2 3 4 4 5 5 5 7 8 10 7 9 10 10 8 6 8 8 8 8 8
5 4 4 4 4 3 4 6 6 4 3 2 2 3 3 5 5 5 6 7 7 7 8 10 11 11 10 10 8 9 9 9 10